Probability
3 3 16 16 16 16 19 26 32 39 32 32 32 42 52 55 48 52 48 52 48 55 52 58 58 58 61 71 77 71 74 74 71 74 71 74 74 77 77 77 81 61 61
3 3 23 16 16 13 16 23 29 39 35 29 35 39 45 48 55 52 52 52 48 48 52 52 61 65 61 65 68 71 71 65 71 71 71 74 71 68 68 71 71 61 61
3 3 23 35 23 16 23 26 26 32 32 29 29 32 39 45 48 55 55 61 52 52 61 65 65 55 58 61 58 61 61 61 61 61 52 32 48 68 65 61 58 58 68
3 10 10 32 26 23 19 23 23 26 35 32 29 32 35 42 52 61 45 52 55 55 52 61 61 52 52 48 52 58 58 58 61 42 16 13 19 52 55 48 42 45 45
6 10 16 32 29 29 26 23 26 26 26 35 39 42 39 39 45 48 52 42 45 45 45 48 52 45 45 45 52 48 48 52 52 16 0 0 10 35 52 52 39 39 42
3 6 16 29 29 26 29 23 29 29 29 32 35 39 42 42 39 45 45 52 42 45 55 52 52 42 39 42 42 45 48 35 16 3 0 0 6 45 48 32 45 39 42
3 10 13 26 29 29 19 16 23 26 29 29 35 39 42 42 48 42 48 45 45 48 48 52 42 45 39 35 35 39 45 29 3 0 0 0 19 42 39 23 26 29 32
3 13 10 23 29 29 29 19 26 23 29 29 35 42 39 32 35 42 39 48 45 45 52 48 45 35 39 35 39 42 42 16 3 0 0 0 26 39 32 16 19 19 26
3 6 10 10 19 19 23 23 16 26 35 32 29 32 32 32 29 39 39 32 35 39 39 42 39 32 32 32 39 39 26 13 3 0 0 0 23 29 23 32 29 26 29
0 3 0 0 0 3 3 19 19 32 26 29 26 26 32 26 23 32 26 29 26 29 29 26 23 26 26 35 35 13 16 10 0 0 0 10 29 26 23 32 26 23 19
0 0 0 0 0 0 0 6 10 13 16 16 16 19 13 3 3 13 13 23 23 26 29 23 23 26 26 29 13 13 6 0 0 0 0 19 23 19 26 26 19 19 16
0 0 0 0 0 0 0 0 0 3 0 0 0 0 0 0 0 6 10 19 16 23 32 23 19 10 3 0 0 3 0 0 0 0 0 23 19 16 16 16 19 19 19
0 0 0 0 0 0 0 0 0 0 0 0 0 0 0 0 0 0 0 0 0 0 0 0 0 0 0 0 0 0 0 0 0 0 3 16 16 16 16 16 16 16 19
0 0 0 0 0 0 0 0 0 0 0 0 0 0 0 0 0 0 0 0 0 0 0 0 0 0 0 0 0 0 0 0 0 0 0 13 16 10 10 16 13 13 13
0 0 0 0 0 0 0 0 0 0 0 0 0 0 0 0 0 0 0 0 0 0 0 0 0 0 0 0 0 0 0 0 0 0 0 3 19 13 13 13 13 13 13
0 0 0 0 0 0 0 0 0 0 0 0 0 0 0 0 0 0 0 0 0 0 0 0 0 0 0 0 0 0 0 0 0 0 0 0 3 6 10 13 13 13 13
0 0 0 0 0 0 0 0 0 0 0 0 0 0 0 0 0 0 0 0 0 0 0 0 0 0 0 0 0 0 0 0 0 0 0 0 0 0 3 10 10 10 6
0 0 0 0 0 0 0 0 0 0 0 0 0 0 0 0 0 0 0 0 0 0 0 0 0 0 0 0 0 0 0 0 0 0 0 0 0 0 0 3 13 10 6
0 0 0 0 0 0 0 0 0 0 0 0 0 0 0 0 0 0 0 0 0 0 0 0 0 0 0 0 0 0 0 0 0 0 0 0 0 0 0 0 0 0 3
0 0 0 0 0 0 0 0 0 0 0 0 0 0 0 0 0 0 0 0 0 0 0 0 0 0 0 0 0 0 0 0 0 0 0 0 0 0 0 0 0 0 0
0 0 0 0 0 0 0 0 0 0 0 0 0 0 0 0 0 0 0 0 0 0 0 0 0 0 0 0 0 0 0 0 0 0 0 0 0 0 0 0 0 0 0
0 0 0 0 0 0 0 0 0 0 0 0 0 0 0 0 0 0 0 0 0 0 0 0 0 0 0 0 0 0 0 0 0 0 0 0 0 0 0 0 0 0 0
0 0 0 0 0 0 0 0 0 0 0 0 0 0 0 0 0 0 0 0 0 0 0 0 0 0 0 0 0 0 0 0 0 0 0 0 0 0 0 0 0 0 0
0 0 0 0 0 0 0 0 0 0 0 0 0 0 0 0 0 0 0 0 0 0 0 0 0 0 0 0 0 0 0 0 0 0 0 0 0 0 0 0 0 0 0
0 0 0 0 0 0 0 0 0 0 0 0 0 0 0 0 0 0 0 0 0 0 0 0 0 0 0 0 0 0 0 0 0 0 0 0 0 0 0 0 0 0 0
0 0 0 0 0 0 0 0 0 0 0 0 0 0 0 0 0 0 0 0 0 0 0 0 0 0 0 0 0 0 0 0 0 0 0 0 0 0 0 0 0 0 0
Height
5860 5860 5860 5860 5861 5861 5862 5862 5863 5863 5864 5864 5865 5865 5865 5866 5867 5868 5868 5869 5870 5871 5872 5873 5874 5874 5875 5876 5877 5877 5878 5879 5880 5880 5881 5881 5882 5882 5883 5884 5884 5884 5885
5859 5858 5859 5859 5859 5860 5860 5861 5861 5861 5862 5862 5863 5863 5864 5865 5866 5867 5868 5868 5869 5870 5871 5872 5873 5874 5874 5875 5876 5877 5878 5878 5879 5880 5880 5881 5881 5882 5882 5883 5883 5884 5884
5857 5857 5857 5857 5858 5858 5858 5859 5859 5860 5860 5861 5861 5861 5862 5863 5864 5865 5866 5867 5868 5869 5870 5871 5871 5873 5873 5874 5875 5876 5877 5877 5878 5879 5879 5880 5881 5881 5882 5882 5882 5883 5883
5856 5856 5856 5856 5856 5856 5857 5857 5858 5858 5858 5859 5859 5859 5860 5861 5862 5863 5865 5866 5867 5867 5868 5869 5870 5871 5872 5873 5874 5875 5875 5876 5877 5877 5878 5879 5880 5880 5881 5881 5881 5882 5882
5854 5855 5854 5854 5855 5855 5855 5855 5856 5856 5856 5857 5857 5857 5858 5859 5860 5862 5863 5864 5865 5866 5867 5868 5869 5869 5870 5871 5872 5873 5874 5875 5875 5876 5877 5878 5878 5879 5879 5879 5880 5880 5881
5853 5853 5853 5853 5853 5853 5853 5853 5854 5854 5854 5854 5855 5855 5856 5858 5859 5860 5861 5862 5863 5864 5865 5866 5867 5868 5869 5870 5871 5871 5872 5873 5874 5875 5875 5876 5877 5877 5878 5878 5878 5879 5879
5852 5852 5852 5852 5852 5852 5852 5852 5852 5852 5852 5853 5853 5854 5855 5856 5857 5858 5859 5860 5861 5862 5863 5864 5865 5866 5867 5868 5869 5870 5871 5871 5872 5873 5874 5874 5875 5876 5876 5876 5877 5877 5877
5851 5851 5851 5850 5850 5850 5850 5850 5850 5851 5851 5851 5852 5852 5854 5854 5855 5856 5857 5858 5859 5860 5861 5862 5863 5864 5865 5866 5867 5868 5869 5870 5870 5871 5872 5872 5873 5874 5874 5875 5875 5875 5875
5850 5850 5849 5849 5849 5849 5849 5849 5849 5849 5850 5850 5851 5851 5852 5853 5854 5855 5856 5857 5858 5858 5859 5860 5861 5862 5863 5864 5865 5866 5867 5868 5868 5869 5870 5870 5871 5872 5872 5872 5873 5872 5873
5849 5849 5848 5848 5848 5848 5847 5847 5848 5848 5848 5848 5849 5850 5851 5851 5852 5853 5854 5855 5856 5857 5858 5858 5859 5860 5861 5862 5863 5864 5865 5866 5866 5867 5868 5868 5869 5869 5870 5870 5871 5871 5871
5848 5848 5847 5847 5847 5847 5846 5846 5846 5847 5847 5847 5847 5848 5849 5849 5850 5851 5852 5853 5854 5855 5856 5856 5857 5858 5859 5860 5861 5862 5863 5863 5864 5865 5866 5866 5867 5867 5867 5868 5868 5868 5869
5848 5847 5847 5846 5846 5845 5845 5845 5845 5845 5845 5846 5846 5846 5847 5847 5848 5849 5850 5851 5852 5853 5853 5854 5855 5856 5857 5858 5859 5859 5860 5861 5862 5862 5863 5864 5864 5865 5865 5865 5866 5866 5866
5847 5847 5846 5846 5845 5845 5844 5844 5844 5844 5844 5844 5845 5845 5845 5846 5847 5847 5848 5849 5849 5850 5851 5852 5853 5854 5855 5855 5856 5857 5858 5859 5859 5860 5861 5862 5862 5862 5863 5863 5863 5864 5864
5846 5846 5845 5845 5844 5844 5844 5843 5843 5843 5843 5843 5843 5844 5844 5844 5845 5845 5846 5847 5847 5848 5849 5850 5851 5852 5852 5853 5854 5855 5856 5857 5857 5858 5859 5859 5859 5860 5860 5860 5861 5861 5861
5845 5845 5845 5844 5844 5843 5843 5843 5842 5842 5842 5842 5842 5842 5843 5843 5843 5844 5844 5845 5845 5846 5847 5848 5849 5849 5850 5851 5851 5852 5853 5854 5855 5855 5856 5856 5857 5857 5857 5858 5858 5858 5858
5845 5844 5844 5844 5843 5842 5842 5842 5841 5841 5841 5841 5841 5841 5841 5841 5842 5842 5843 5843 5843 5844 5845 5845 5846 5847 5848 5848 5849 5850 5850 5851 5852 5853 5853 5854 5854 5854 5855 5855 5855 5855 5855
5844 5843 5843 5843 5842 5841 5841 5841 5840 5840 5840 5840 5840 5840 5840 5840 5840 5840 5841 5841 5842 5842 5843 5843 5844 5845 5845 5846 5847 5847 5848 5848 5849 5850 5850 5851 5851 5852 5852 5852 5852 5852 5852
5843 5842 5842 5842 5841 5840 5840 5840 5839 5839 5839 5839 5838 5838 5838 5838 5838 5838 5839 5839 5840 5840 5841 5841 5842 5842 5843 5843 5844 5845 5845 5846 5846 5847 5848 5848 5848 5849 5849 5849 5849 5849 5849
5842 5841 5841 5840 5840 5839 5839 5838 5838 5837 5837 5837 5837 5837 5836 5836 5836 5836 5837 5837 5837 5838 5838 5839 5839 5840 5840 5841 5841 5842 5842 5843 5843 5844 5845 5845 5845 5846 5846 5846 5846 5846 5846
5840 5840 5840 5839 5839 5838 5837 5837 5837 5836 5836 5835 5835 5835 5835 5835 5835 5835 5835 5835 5835 5835 5836 5836 5837 5837 5837 5838 5838 5839 5839 5840 5840 5841 5841 5842 5842 5842 5843 5843 5843 5843 5843
5839 5839 5838 5838 5837 5837 5836 5836 5835 5835 5834 5834 5834 5834 5833 5833 5833 5833 5833 5833 5833 5833 5833 5834 5834 5834 5834 5835 5835 5836 5836 5836 5837 5837 5838 5838 5839 5839 5839 5839 5839 5840 5840
5837 5837 5836 5836 5836 5835 5835 5834 5834 5834 5833 5833 5832 5832 5832 5831 5831 5831 5831 5830 5830 5830 5831 5831 5831 5832 5831 5832 5832 5832 5833 5833 5833 5833 5834 5834 5835 5835 5836 5836 5836 5836 5836
5836 5835 5835 5834 5834 5834 5833 5833 5832 5832 5831 5831 5831 5830 5830 5829 5829 5829 5828 5828 5828 5828 5828 5828 5828 5829 5828 5828 5829 5829 5829 5830 5830 5830 5830 5831 5831 5831 5832 5832 5832 5832 5832
5834 5834 5833 5833 5832 5832 5831 5831 5830 5830 5829 5829 5828 5828 5827 5827 5826 5826 5826 5826 5825 5825 5825 5825 5825 5825 5825 5825 5825 5825 5826 5826 5826 5826 5826 5826 5827 5827 5828 5828 5828 5828 5828
5832 5832 5831 5831 5830 5830 5829 5829 5828 5828 5827 5827 5826 5825 5825 5824 5824 5823 5823 5823 5822 5822 5822 5822 5822 5822 5822 5822 5822 5821 5821 5821 5821 5822 5822 5822 5822 5823 5823 5823 5824 5824 5824
5831 5830 5829 5829 5828 5827 5827 5826 5826 5825 5824 5824 5823 5823 5822 5821 5821 5820 5820 5819 5819 5819 5819 5819 5818 5818 5818 5818 5818 5817 5817 5817 5817 5817 5817 5817 5817 5818 5818 5818 5819 5819 5819
Wind_Speed
7 7 7 7 7 7 7 7 7 7 6 6 5 5 5 5 5 5 5 5 4 4 4 5 4 4 4 4 4 4 4 4 4 4 4 4 4 4 3 3 3 3 3
7 7 7 7 7 7 8 8 8 8 7 7 6 6 6 6 7 7 7 6 6 5 5 6 6 6 6 5 5 5 5 5 5 5 5 5 5 5 4 4 4 4 4
6 7 7 8 8 8 8 8 8 8 8 8 7 7 8 7 8 8 8 8 7 7 7 7 7 7 7 7 6 6 6 6 6 6 6 6 6 6 6 5 5 5 5
6 7 7 8 8 8 8 8 8 8 9 8 8 8 8 8 8 8 8 9 8 8 8 8 8 8 8 8 8 7 7 7 7 7 8 7 7 7 7 7 7 7 7
6 7 7 8 8 8 8 8 8 9 9 9 9 9 9 9 9 9 9 9 9 9 9 9 8 8 8 8 8 8 8 8 8 8 8 8 8 7 8 7 7 7 8
6 6 7 7 7 7 7 8 8 9 8 8 9 9 9 9 9 9 9 9 9 9 9 9 9 9 9 9 9 9 9 9 8 9 9 8 8 8 8 8 8 8 8
5 6 6 6 6 6 7 7 7 8 8 8 9 9 9 10 9 9 9 9 10 9 10 10 10 10 9 9 9 9 9 9 9 9 10 9 9 8 9 9 9 9 9
4 5 5 5 5 5 6 6 7 7 8 8 9 9 9 9 9 8 8 8 9 9 9 10 10 10 10 10 10 9 9 9 9 10 10 10 9 9 9 10 10 10 9
4 4 5 5 5 5 5 6 6 6 7 7 8 9 9 10 10 10 9 9 9 9 9 9 10 10 10 10 10 10 10 9 10 10 10 10 10 10 10 10 10 10 10
4 4 4 4 4 5 5 5 5 6 7 7 7 8 9 10 10 10 10 10 10 10 9 9 9 10 10 10 10 10 10 10 10 10 10 10 10 10 11 11 11 11 11
4 4 4 4 4 4 5 5 5 5 6 7 7 7 8 9 10 10 10 10 10 11 10 10 10 10 10 11 10 10 10 10 10 10 11 11 11 11 11 12 12 12 12
4 4 4 4 4 4 4 4 5 5 6 6 7 7 8 9 10 10 10 11 11 11 11 11 11 10 10 11 11 11 10 10 10 10 10 10 11 11 11 12 12 12 12
3 4 4 4 3 4 4 4 4 4 5 6 6 6 7 8 9 9 9 10 10 10 10 10 11 11 11 11 11 11 11 10 10 10 10 11 11 11 12 12 12 12 11
4 3 4 4 4 3 3 3 3 4 5 5 5 6 7 8 8 9 9 10 10 10 10 10 10 10 10 11 11 11 11 11 11 11 11 11 12 12 12 11 11 11 12
3 3 3 3 3 4 4 4 4 4 4 5 5 6 6 6 7 8 9 10 10 10 11 11 11 11 11 11 11 11 12 12 12 12 12 12 12 13 12 12 11 12 12
4 3 3 3 3 4 4 4 5 5 5 5 6 7 7 7 7 8 9 9 9 9 9 10 10 10 9 9 10 11 12 12 12 12 12 13 13 13 13 13 12 12 12
4 4 3 3 4 5 4 5 5 5 6 6 7 7 7 8 8 8 8 9 9 9 9 8 9 10 10 10 11 11 12 12 12 13 13 13 13 13 13 13 13 13 13
4 4 4 4 5 5 5 5 5 6 6 6 6 7 7 7 7 7 8 8 9 9 9 9 9 9 10 11 11 11 12 12 12 13 13 13 13 13 13 13 13 13 14
4 4 5 5 5 5 5 5 5 6 6 6 6 6 6 7 7 7 8 8 9 9 9 9 9 9 10 10 11 11 12 12 12 13 13 13 13 13 13 13 13 13 13
5 5 5 5 5 6 5 5 5 6 6 6 6 6 6 6 6 6 7 8 8 9 10 10 10 11 11 11 11 11 12 13 13 13 14 14 14 14 14 14 14 14 13
5 6 6 6 6 6 5 5 5 6 6 6 6 6 6 6 6 7 8 8 8 9 9 10 11 11 11 11 12 12 12 13 13 14 14 14 14 14 14 14 14 13 13
6 6 6 6 6 6 5 6 6 6 6 7 7 7 7 7 8 8 9 9 8 9 9 10 10 10 11 11 11 12 13 13 14 14 14 15 15 15 14 14 14 14 14
6 6 6 6 6 6 6 6 6 7 7 7 7 8 8 8 9 9 9 9 9 9 9 10 10 10 11 11 11 12 13 14 15 15 15 15 16 16 15 15 15 15 15
7 6 6 7 7 7 7 7 7 7 7 7 8 8 9 9 9 9 10 10 10 10 10 11 11 12 12 13 13 13 14 15 15 15 15 16 16 17 16 15 16 15 16
7 7 8 8 8 8 8 8 8 8 8 9 9 10 9 10 10 10 11 11 11 11 11 12 12 13 13 14 14 14 15 15 15 16 16 17 17 18 18 17 16 16 16
8 8 8 8 8 8 8 9 9 9 9 10 10 10 10 11 11 11 12 12 12 12 13 13 13 14 15 15 16 16 16 16 16 16 16 17 18 18 18 18 18 17 17
Wind_Direction
254 255 255 254 255 256 257 256 255 255 257 258 254 246 241 241 235 225 226 225 222 223 225 217 212 210 217 225 224 220 220 223 225 220 220 216 212 204 203 210 219 217 221
253 252 254 254 254 255 257 257 256 254 253 255 254 250 245 243 241 235 230 228 229 232 233 226 224 222 228 231 228 227 231 237 233 232 230 227 224 220 225 228 229 226 228
258 254 255 256 255 255 255 255 256 255 254 255 254 250 245 243 242 238 233 232 233 233 230 228 229 229 234 234 233 235 237 241 238 238 233 233 230 232 238 239 238 237 239
265 262 259 258 260 258 255 253 254 254 253 253 254 252 247 242 238 239 238 236 235 237 236 236 237 236 233 231 233 234 237 242 243 237 235 233 234 236 241 245 248 248 249
272 265 263 262 261 259 254 252 251 252 253 254 252 249 243 239 239 239 239 235 236 240 240 240 240 236 235 235 238 239 242 244 244 240 236 236 237 241 244 248 251 251 252
273 267 265 260 258 255 254 252 250 252 253 254 249 244 239 238 240 241 240 238 238 241 241 243 243 242 241 241 242 243 247 247 245 243 241 238 239 243 247 251 257 255 252
275 271 266 263 262 256 255 255 253 254 252 252 246 240 237 238 240 242 241 242 240 244 245 245 246 247 244 244 245 244 244 246 248 246 240 239 241 246 249 252 258 257 254
283 280 273 268 268 267 263 262 257 255 253 250 244 239 238 236 236 239 239 242 243 246 246 245 248 247 246 246 248 248 243 246 250 251 244 244 247 252 252 253 257 257 254
293 289 279 275 273 269 266 266 262 259 254 251 248 241 239 238 238 240 239 241 242 245 247 245 244 243 245 247 249 248 246 248 249 251 247 247 247 252 253 253 259 257 256
301 299 295 289 280 273 269 266 263 259 257 254 250 246 244 243 240 239 241 244 245 248 247 247 247 243 244 246 247 249 248 250 252 251 250 247 247 253 258 259 261 260 257
309 308 302 296 286 278 276 266 259 261 262 259 252 250 249 247 245 245 242 244 246 248 246 248 252 249 247 247 248 248 248 248 250 249 250 250 252 257 260 261 263 265 265
313 315 311 305 300 290 281 273 265 268 262 256 251 251 254 252 248 246 248 246 246 248 248 249 250 250 249 250 248 247 247 248 250 248 248 252 254 258 260 260 261 265 265
316 318 316 311 304 292 283 277 270 269 262 250 247 247 251 252 245 244 246 245 247 248 248 248 246 247 247 249 249 246 246 248 250 249 248 251 254 257 262 262 261 261 263
310 312 314 315 311 300 284 277 277 274 268 256 252 254 253 252 249 244 243 244 247 249 251 251 249 253 251 248 248 247 247 248 247 247 250 253 254 257 260 262 259 260 265
304 305 309 309 310 304 296 287 279 275 268 263 261 262 256 255 254 251 245 244 246 248 250 253 253 256 253 252 250 247 246 248 248 250 252 254 254 256 258 261 263 265 265
305 302 304 311 316 307 291 285 275 270 270 268 271 268 263 262 259 257 253 251 250 253 253 254 253 257 258 256 254 252 250 250 250 252 253 255 257 256 257 259 263 266 266
302 298 299 307 317 314 292 286 284 280 279 277 275 273 267 263 259 256 256 252 253 256 257 257 254 255 258 258 256 256 254 254 251 251 253 254 256 257 257 259 264 268 269
296 296 297 301 309 310 298 288 290 288 282 278 278 273 267 264 263 261 259 256 257 254 254 255 254 256 258 259 257 255 256 256 253 253 254 255 257 258 258 261 265 267 268
294 295 295 299 306 305 297 288 289 288 283 279 277 277 271 268 269 268 264 258 258 255 254 254 256 257 256 256 257 254 255 255 254 255 256 257 258 260 261 263 265 268 268
293 294 297 299 302 302 296 291 289 288 284 280 277 278 278 276 274 276 272 265 263 259 257 256 255 256 257 259 260 256 254 254 253 254 256 258 259 260 261 264 266 267 267
293 292 293 295 296 300 297 293 294 292 288 283 280 278 282 280 276 275 276 272 268 264 261 261 258 260 261 261 261 259 259 258 257 256 257 258 259 261 262 265 267 268 269
292 293 293 293 293 295 294 294 295 296 293 289 284 278 278 276 277 280 277 275 271 267 265 264 263 263 265 264 261 261 262 262 259 256 258 260 260 261 263 266 268 269 270
291 291 289 291 293 294 294 292 291 293 295 294 289 284 283 281 280 279 280 276 274 271 270 268 267 266 267 267 263 263 263 263 264 259 261 260 260 261 262 265 267 269 270
293 289 291 292 291 293 291 290 291 293 294 293 289 288 286 285 284 281 280 273 269 269 270 270 269 269 269 269 266 265 267 266 266 265 265 263 262 262 263 265 267 269 271
288 289 292 291 290 292 292 289 288 291 290 290 290 288 287 285 283 281 281 275 271 269 269 271 271 270 270 271 270 271 270 268 267 267 266 265 264 264 263 264 266 269 271
289 288 288 289 292 294 293 290 290 289 288 288 289 288 284 282 282 281 279 276 272 271 271 271 271 272 271 271 271 271 270 267 266 267 267 265 264 264 264 265 266 268 269